LOT2142 LIRF-EPKK

Flight info

Callsign LOT2142
Flight time N/A
Altitude 34000
Route TIBER DCT INTUD DCT LANLI DCT BAXON/N0456F350 DCT GEMKA DCT LEDVA DCT NETIR
Aircraft B38M/M-SDE2E3FGHIRWXY/LB1

Departure

Time 2026-05-05 18:47
Airport Rome–Fiumicino Leonardo da Vinci International Airport (LIRF)

Arrival

Time N/A
Airport Kraków John Paul II International Airport (EPKK)
Time Latitude Longitude Altitude Speed Heading
2026-05-05 18:08 41.79685 12.26017 19 ft 0 kts 292°
2026-05-05 18:39 41.79686 12.26017 19 ft 0 kts 303°
2026-05-05 18:39 41.79690 12.26017 19 ft 1 kts 356°
2026-05-05 18:39 41.79706 12.26031 20 ft 6 kts 40°
2026-05-05 18:39 41.79758 12.26094 19 ft 11 kts 32°
2026-05-05 18:40 41.79803 12.26132 21 ft 5 kts 18°
2026-05-05 18:40 41.79814 12.26129 20 ft 1 kts 321°
2026-05-05 18:40 41.79827 12.26092 22 ft 11 kts 295°
2026-05-05 18:40 41.79873 12.25961 21 ft 17 kts 295°
2026-05-05 18:41 41.79916 12.25876 20 ft 6 kts 334°
2026-05-05 18:41 41.79947 12.25874 20 ft 5 kts 11°
2026-05-05 18:41 41.80014 12.25911 20 ft 15 kts 25°
2026-05-05 18:41 41.80120 12.25977 19 ft 18 kts 24°
2026-05-05 18:42 41.80242 12.26052 17 ft 21 kts 25°
2026-05-05 18:42 41.80375 12.26136 17 ft 21 kts 24°
2026-05-05 18:42 41.80478 12.26184 17 ft 12 kts 18°
2026-05-05 18:42 41.80536 12.26266 17 ft 13 kts 69°
2026-05-05 18:43 41.80567 12.26379 19 ft 13 kts 71°
2026-05-05 18:43 41.80600 12.26504 18 ft 16 kts 70°
2026-05-05 18:43 41.80642 12.26656 17 ft 19 kts 70°
2026-05-05 18:43 41.80689 12.26830 14 ft 19 kts 70°
2026-05-05 18:44 41.80731 12.26983 13 ft 12 kts 69°
2026-05-05 18:44 41.80796 12.27041 12 ft 13 kts 354°
2026-05-05 18:44 41.80870 12.27008 13 ft 0 kts 340°
2026-05-05 18:45 41.80882 12.27003 15 ft 5 kts 339°
2026-05-05 18:45 41.80941 12.26972 15 ft 12 kts 330°
2026-05-05 18:46 41.80952 12.26921 14 ft 0 kts 251°
2026-05-05 18:46 41.80951 12.26919 14 ft 2 kts 251°
2026-05-05 18:46 41.80939 12.26868 14 ft 0 kts 251°
2026-05-05 18:46 41.80930 12.26833 15 ft 9 kts 251°
2026-05-05 18:47 41.80825 12.26458 20 ft 83 kts 249°
2026-05-05 18:47 41.80537 12.25405 19 ft 154 kts 248°
2026-05-05 18:47 41.80103 12.23929 468 ft 174 kts 250°
2026-05-05 18:47 41.79766 12.22391 1354 ft 171 kts 247°
2026-05-05 18:48 41.79362 12.20885 2007 ft 174 kts 239°
2026-05-05 18:48 41.78571 12.19681 2558 ft 176 kts 211°
2026-05-05 18:48 41.77516 12.18704 3038 ft 191 kts 214°
2026-05-05 18:48 41.76415 12.17587 3599 ft 205 kts 215°
2026-05-05 18:49 41.75091 12.16868 4307 ft 208 kts 184°
2026-05-05 18:49 41.73600 12.16910 4923 ft 223 kts 180°
2026-05-05 18:49 41.71974 12.16962 5364 ft 244 kts 180°
2026-05-05 18:49 41.70218 12.17028 5858 ft 261 kts 180°
2026-05-05 18:50 41.68396 12.17107 6666 ft 263 kts 180°
2026-05-05 18:50 41.66540 12.17189 7390 ft 269 kts 180°
2026-05-05 18:50 41.64681 12.17275 8165 ft 272 kts 180°
2026-05-05 18:50 41.62764 12.17366 8933 ft 276 kts 180°
2026-05-05 18:51 41.60834 12.17456 9693 ft 281 kts 181°
2026-05-05 18:51 41.58857 12.17590 10387 ft 291 kts 175°
2026-05-05 18:51 41.56882 12.18512 10810 ft 316 kts 149°
2026-05-05 18:51 41.55303 12.20697 11218 ft 342 kts 122°
2026-05-05 18:52 41.54497 12.23768 11582 ft 362 kts 101°
2026-05-05 18:52 41.54001 12.27127 11951 ft 374 kts 103°
2026-05-05 18:52 41.53448 12.30527 12692 ft 375 kts 103°
2026-05-05 18:52 41.52969 12.33926 13296 ft 381 kts 95°
2026-05-05 18:53 41.53194 12.37452 13980 ft 385 kts 75°
2026-05-05 18:53 41.54287 12.40713 14507 ft 389 kts 54°
2026-05-05 18:53 41.56141 12.43340 15092 ft 390 kts 35°
2026-05-05 18:53 41.58496 12.45110 15652 ft 391 kts 22°
2026-05-05 18:54 41.60136 12.46145 15997 ft 394 kts 23°
2026-05-05 18:54 41.62631 12.47717 16562 ft 398 kts 23°
2026-05-05 18:54 41.65165 12.49296 17115 ft 402 kts 22°
2026-05-05 18:54 41.67717 12.50881 17646 ft 406 kts 22°
2026-05-05 18:55 41.70287 12.52475 18185 ft 410 kts 22°
2026-05-05 18:55 41.72883 12.54086 18658 ft 413 kts 22°
2026-05-05 18:55 41.75491 12.55706 19149 ft 415 kts 22°
2026-05-05 18:55 41.78085 12.57318 19633 ft 417 kts 22°
2026-05-05 18:56 41.80852 12.58491 20099 ft 414 kts
2026-05-05 18:56 41.83726 12.58748 20537 ft 415 kts 359°
2026-05-05 18:56 41.86630 12.58881 20964 ft 418 kts 359°
2026-05-05 18:56 41.89543 12.58980 21424 ft 420 kts 358°
2026-05-05 18:57 41.92475 12.59064 21887 ft 422 kts 358°
2026-05-05 18:57 41.95425 12.59140 22335 ft 425 kts 358°
2026-05-05 18:57 41.98358 12.59213 22795 ft 428 kts 358°
2026-05-05 18:57 42.01385 12.59287 23273 ft 431 kts 358°
2026-05-05 18:58 42.04393 12.59366 23712 ft 434 kts 358°
2026-05-05 18:58 42.07421 12.59444 24121 ft 437 kts 358°
2026-05-05 18:58 42.10424 12.59522 24539 ft 439 kts 358°
2026-05-05 18:58 42.13502 12.59602 24958 ft 442 kts 357°
2026-05-05 18:59 42.16567 12.59682 25372 ft 445 kts 357°
2026-05-05 18:59 42.19686 12.59763 25785 ft 447 kts 357°
2026-05-05 18:59 42.22824 12.59844 26184 ft 450 kts 356°
2026-05-05 18:59 42.25963 12.60056 26571 ft 455 kts 360°
2026-05-05 19:00 42.29124 12.60376 26987 ft 456 kts 359°
2026-05-05 19:00 42.32299 12.60677 27370 ft 459 kts 359°
2026-05-05 19:00 42.35523 12.60974 27751 ft 462 kts 359°
2026-05-05 19:00 42.38696 12.61267 28131 ft 464 kts 358°
2026-05-05 19:01 42.41932 12.61565 28516 ft 466 kts 358°
2026-05-05 19:01 42.45179 12.61864 28885 ft 468 kts 358°
2026-05-05 19:01 42.48434 12.62506 29243 ft 479 kts 10°
2026-05-05 19:01 42.51641 12.63740 29656 ft 480 kts
2026-05-05 19:02 42.54884 12.64913 29926 ft 484 kts
2026-05-05 19:02 42.58146 12.66109 30277 ft 486 kts
2026-05-05 19:02 42.61377 12.67300 30549 ft 488 kts
2026-05-05 19:02 42.64662 12.68513 30948 ft 487 kts
2026-05-05 19:03 42.67937 12.69723 31297 ft 488 kts
2026-05-05 19:03 42.71221 12.70939 31655 ft 488 kts
2026-05-05 19:03 42.74498 12.72154 32012 ft 488 kts
2026-05-05 19:03 42.77781 12.73373 32407 ft 488 kts
2026-05-05 19:04 42.81042 12.74584 32778 ft 487 kts
2026-05-05 19:04 42.84314 12.75800 33149 ft 487 kts
2026-05-05 19:04 42.87590 12.77019 33559 ft 487 kts
2026-05-05 19:04 42.90849 12.78234 33929 ft 487 kts
2026-05-05 19:05 42.94096 12.79445 34061 ft 488 kts
2026-05-05 19:05 42.97368 12.80669 34015 ft 486 kts
2026-05-05 19:05 43.03885 12.83106 34034 ft 485 kts
2026-05-05 19:06 43.10398 12.85547 34031 ft 484 kts
2026-05-05 19:06 43.16877 12.87981 34020 ft 483 kts
2026-05-05 19:07 43.23335 12.90415 34049 ft 482 kts
2026-05-05 19:07 43.29802 12.92854 34008 ft 480 kts
2026-05-05 19:08 43.36242 12.95290 34019 ft 480 kts
2026-05-05 19:08 43.42693 12.97736 34003 ft 480 kts
2026-05-05 19:09 43.49134 13.00182 33985 ft 478 kts
2026-05-05 19:09 43.55546 13.02624 34002 ft 477 kts
2026-05-05 19:10 43.61947 13.05066 34001 ft 477 kts
2026-05-05 19:10 43.68302 13.07496 33992 ft 477 kts
2026-05-05 19:11 43.74703 13.09949 33996 ft 477 kts
2026-05-05 19:11 43.81099 13.12406 33994 ft 478 kts
2026-05-05 19:12 43.87509 13.14873 33991 ft 478 kts
2026-05-05 19:12 43.93902 13.17339 33983 ft 479 kts
2026-05-05 19:13 44.00167 13.20774 33989 ft 487 kts 17°
2026-05-05 19:13 44.06381 13.24561 33983 ft 488 kts 17°
2026-05-05 19:14 44.12604 13.28378 33982 ft 487 kts 17°
2026-05-05 19:14 44.18808 13.32193 34289 ft 488 kts 17°
2026-05-05 19:15 44.21913 13.34105 34654 ft 486 kts 17°
2026-05-05 19:15 44.24961 13.35985 34955 ft 485 kts 17°
2026-05-05 19:15 44.31138 13.39799 34990 ft 482 kts 17°
2026-05-05 19:16 44.37272 13.43597 34994 ft 482 kts 17°
2026-05-05 19:16 44.43357 13.47566 34993 ft 484 kts 20°
2026-05-05 19:17 44.49388 13.51753 35005 ft 484 kts 20°
2026-05-05 19:17 44.55400 13.55907 35003 ft 483 kts 20°
2026-05-05 19:18 44.61448 13.60094 34996 ft 482 kts 20°
2026-05-05 19:18 44.67426 13.64243 35011 ft 482 kts 20°
2026-05-05 19:19 44.73446 13.68430 35013 ft 482 kts 20°
2026-05-05 19:19 44.79454 13.72619 35020 ft 481 kts 20°
2026-05-05 19:20 44.85409 13.76780 35022 ft 481 kts 20°
2026-05-05 19:20 44.91441 13.81005 35025 ft 480 kts 20°
2026-05-05 19:21 44.97389 13.85181 35025 ft 480 kts 20°
2026-05-05 19:21 45.03370 13.89390 35024 ft 479 kts 20°
2026-05-05 19:22 45.09341 13.93602 35019 ft 479 kts 21°
2026-05-05 19:22 45.15296 13.97812 35028 ft 478 kts 21°
2026-05-05 19:23 45.21226 14.02015 35033 ft 478 kts 21°
2026-05-05 19:23 45.27181 14.06245 35038 ft 478 kts 21°
2026-05-05 19:24 45.33132 14.10482 35035 ft 478 kts 21°
2026-05-05 19:24 45.39075 14.14723 35041 ft 478 kts 22°
2026-05-05 19:25 45.45016 14.18971 35043 ft 478 kts 22°
2026-05-05 19:25 45.50945 14.23350 35039 ft 479 kts 23°
2026-05-05 19:26 45.56875 14.27754 35041 ft 480 kts 23°
2026-05-05 19:26 45.62797 14.32158 35033 ft 480 kts 23°
2026-05-05 19:27 45.68690 14.36553 35019 ft 481 kts 24°
2026-05-05 19:27 45.74640 14.41000 35020 ft 481 kts 24°
2026-05-05 19:28 45.80578 14.45449 35012 ft 481 kts 24°
2026-05-05 19:28 45.86520 14.49912 35005 ft 482 kts 24°
2026-05-05 19:29 45.92425 14.54358 34997 ft 481 kts 24°
2026-05-05 19:29 45.98329 14.58813 34995 ft 481 kts 24°
2026-05-05 19:30 46.04295 14.63327 34996 ft 481 kts 25°
2026-05-05 19:30 46.10178 14.67788 34990 ft 480 kts 25°
2026-05-05 19:31 46.16086 14.72280 34988 ft 479 kts 25°
2026-05-05 19:31 46.21985 14.76774 34986 ft 479 kts 25°
2026-05-05 19:32 46.27897 14.81292 34979 ft 480 kts 25°
2026-05-05 19:32 46.33742 14.85769 34973 ft 478 kts 25°
2026-05-05 19:33 46.39619 14.90281 34956 ft 477 kts 26°
2026-05-05 19:33 46.45494 14.94801 34957 ft 477 kts 26°
2026-05-05 19:34 46.51352 14.99321 34937 ft 476 kts 26°
2026-05-05 19:35 46.60131 15.06114 34932 ft 476 kts 26°
2026-05-05 19:35 46.65934 15.10619 34915 ft 475 kts 26°
2026-05-05 19:36 46.71776 15.15165 34907 ft 475 kts 26°
2026-05-05 19:36 46.77614 15.19719 34899 ft 476 kts 26°
2026-05-05 19:37 46.83455 15.24288 34896 ft 477 kts 26°
2026-05-05 19:37 46.89308 15.28877 34884 ft 477 kts 26°
2026-05-05 19:38 46.95126 15.33449 34888 ft 475 kts 26°
2026-05-05 19:38 47.00951 15.38038 34884 ft 474 kts 26°
2026-05-05 19:39 47.06733 15.42605 34884 ft 475 kts 26°
2026-05-05 19:39 47.12556 15.47216 34887 ft 475 kts 26°
2026-05-05 19:40 47.18380 15.51840 34880 ft 475 kts 26°
2026-05-05 19:40 47.24202 15.56473 34874 ft 475 kts 26°
2026-05-05 19:41 47.29994 15.61094 34870 ft 475 kts 26°
2026-05-05 19:41 47.35777 15.65719 34854 ft 474 kts 26°
2026-05-05 19:42 47.41562 15.70357 34854 ft 473 kts 26°
2026-05-05 19:42 47.47362 15.75020 34848 ft 473 kts 26°
2026-05-05 19:43 47.53106 15.79649 34840 ft 472 kts 26°
2026-05-05 19:43 47.58870 15.84306 34825 ft 472 kts 26°
2026-05-05 19:44 47.63687 15.88206 34811 ft 472 kts 26°
2026-05-05 19:44 47.69459 15.92892 34804 ft 472 kts 26°
2026-05-05 19:45 47.75184 15.97550 34796 ft 472 kts 27°
2026-05-05 19:45 47.80928 16.02237 34783 ft 471 kts 27°
2026-05-05 19:46 47.86706 16.06963 34771 ft 471 kts 27°
2026-05-05 19:46 47.92417 16.11646 34765 ft 471 kts 27°
2026-05-05 19:47 47.98173 16.16378 34761 ft 471 kts 27°
2026-05-05 19:47 48.03923 16.21117 34761 ft 471 kts 27°
2026-05-05 19:48 48.09625 16.25829 34764 ft 471 kts 27°
2026-05-05 19:48 48.15386 16.30601 34761 ft 472 kts 27°
2026-05-05 19:49 48.21129 16.35371 34767 ft 472 kts 27°
2026-05-05 19:49 48.26885 16.40164 34760 ft 472 kts 28°
2026-05-05 19:50 48.32639 16.44968 34755 ft 473 kts 28°
2026-05-05 19:50 48.38382 16.49776 34760 ft 473 kts 28°
2026-05-05 19:51 48.44111 16.54582 34749 ft 473 kts 28°
2026-05-05 19:51 48.49855 16.59412 34747 ft 473 kts 28°
2026-05-05 19:52 48.55607 16.64262 34747 ft 473 kts 28°
2026-05-05 19:52 48.61356 16.69122 34762 ft 474 kts 28°
2026-05-05 19:53 48.67103 16.73993 34757 ft 473 kts 28°
2026-05-05 19:53 48.72656 16.79252 34735 ft 474 kts 44°
2026-05-05 19:54 48.76929 16.86875 34757 ft 476 kts 50°
2026-05-05 19:54 48.81077 16.94708 34760 ft 476 kts 51°
2026-05-05 19:55 48.85172 17.02598 34764 ft 476 kts 51°
2026-05-05 19:55 48.89264 17.10528 34776 ft 475 kts 51°
2026-05-05 19:56 48.93307 17.18385 34781 ft 476 kts 51°
2026-05-05 19:56 48.97385 17.26335 34784 ft 475 kts 51°
2026-05-05 19:57 49.01453 17.34287 34781 ft 476 kts 51°
2026-05-05 19:57 49.05521 17.42265 34778 ft 476 kts 51°
2026-05-05 19:58 49.09563 17.50214 34787 ft 476 kts 51°
2026-05-05 19:58 49.13617 17.58212 34800 ft 476 kts 51°
2026-05-05 19:59 49.17672 17.66234 34806 ft 476 kts 51°
2026-05-05 19:59 49.21698 17.74225 34793 ft 476 kts 51°
2026-05-05 20:00 49.25740 17.82269 34798 ft 476 kts 52°
2026-05-05 20:00 49.29698 17.90169 34788 ft 452 kts 52°
2026-05-05 20:00 49.31579 17.93931 34336 ft 448 kts 51°
2026-05-05 20:01 49.33480 17.97743 33559 ft 453 kts 52°
2026-05-05 20:01 49.35399 18.01593 32692 ft 457 kts 51°
2026-05-05 20:01 49.37341 18.05497 31908 ft 459 kts 51°
2026-05-05 20:01 49.39274 18.09386 31231 ft 459 kts 51°
2026-05-05 20:02 49.41217 18.13302 30556 ft 460 kts 52°
2026-05-05 20:02 49.43156 18.17217 29796 ft 462 kts 51°
2026-05-05 20:02 49.45103 18.21155 29151 ft 459 kts 52°
2026-05-05 20:02 49.47031 18.25056 28590 ft 455 kts 52°
2026-05-05 20:03 49.48929 18.28904 28067 ft 450 kts 52°
2026-05-05 20:03 49.50791 18.32684 27533 ft 447 kts 52°
2026-05-05 20:03 49.52659 18.36482 27005 ft 443 kts 52°
2026-05-05 20:03 49.54512 18.40255 26472 ft 440 kts 52°
2026-05-05 20:04 49.56355 18.44012 25932 ft 438 kts 52°
2026-05-05 20:04 49.58183 18.47744 25405 ft 435 kts 52°
2026-05-05 20:04 49.60000 18.51458 24885 ft 433 kts 52°
2026-05-05 20:04 49.61812 18.55165 24370 ft 431 kts 52°
2026-05-05 20:05 49.63609 18.58846 23865 ft 429 kts 53°
2026-05-05 20:05 49.63654 18.58938 23852 ft 429 kts 53°
2026-05-05 20:05 49.65238 18.62189 23409 ft 428 kts 53°
2026-05-05 20:05 49.67027 18.65862 22819 ft 426 kts 52°
2026-05-05 20:06 49.69030 18.69175 22207 ft 424 kts 37°
2026-05-05 20:06 49.71540 18.71386 21710 ft 418 kts 19°
2026-05-05 20:06 49.74313 18.72592 21323 ft 411 kts 13°
2026-05-05 20:06 49.77073 18.73674 20847 ft 408 kts 13°
2026-05-05 20:07 49.79829 18.74729 20377 ft 406 kts 13°
2026-05-05 20:07 49.82557 18.75756 19919 ft 404 kts 13°
2026-05-05 20:07 49.85277 18.76915 19451 ft 403 kts 21°
2026-05-05 20:07 49.87686 18.79083 18991 ft 400 kts 40°
2026-05-05 20:08 49.89516 18.82281 18606 ft 395 kts 59°
2026-05-05 20:08 49.90614 18.86100 18200 ft 390 kts 77°
2026-05-05 20:08 49.90918 18.90194 18004 ft 377 kts 93°
2026-05-05 20:08 49.90821 18.94204 17803 ft 367 kts 95°
2026-05-05 20:09 49.90671 18.98117 17620 ft 359 kts 96°
2026-05-05 20:09 49.90492 19.01930 17454 ft 350 kts 97°
2026-05-05 20:09 49.90298 19.05695 17078 ft 348 kts 97°
2026-05-05 20:09 49.90095 19.09417 16742 ft 345 kts 97°
2026-05-05 20:10 49.89886 19.13111 16410 ft 342 kts 97°
2026-05-05 20:10 49.89675 19.16776 16072 ft 340 kts 98°
2026-05-05 20:10 49.89464 19.20412 15736 ft 337 kts 98°
2026-05-05 20:10 49.89252 19.24028 15395 ft 335 kts 98°
2026-05-05 20:11 49.89186 19.27652 14991 ft 338 kts 84°
2026-05-05 20:11 49.89893 19.31078 14675 ft 339 kts 68°
2026-05-05 20:11 49.90843 19.34464 14350 ft 336 kts 69°
2026-05-05 20:11 49.91754 19.37757 14011 ft 336 kts 69°
2026-05-05 20:12 49.92678 19.41080 13651 ft 335 kts 69°
2026-05-05 20:12 49.93605 19.44409 13282 ft 335 kts 69°
2026-05-05 20:12 49.94530 19.47727 12907 ft 333 kts 69°
2026-05-05 20:12 49.95185 19.51132 12525 ft 328 kts 82°
2026-05-05 20:13 49.95614 19.54476 12208 ft 326 kts 81°
2026-05-05 20:13 49.96069 19.57919 11877 ft 324 kts 81°
2026-05-05 20:13 49.96520 19.61300 11532 ft 323 kts 81°
2026-05-05 20:13 49.96979 19.64701 11294 ft 317 kts 81°
2026-05-05 20:14 49.97428 19.68022 11100 ft 312 kts 81°
2026-05-05 20:14 49.97868 19.71293 10904 ft 307 kts 81°
2026-05-05 20:14 49.98305 19.74519 10656 ft 304 kts 81°
2026-05-05 20:14 49.98744 19.77750 10357 ft 303 kts 81°
2026-05-05 20:15 49.99173 19.80919 10166 ft 297 kts 81°
2026-05-05 20:15 49.99600 19.84071 9789 ft 300 kts 81°
2026-05-05 20:15 50.00030 19.87255 9333 ft 304 kts 81°
2026-05-05 20:15 50.00472 19.90515 8900 ft 308 kts 81°
2026-05-05 20:16 50.00905 19.93724 8734 ft 300 kts 81°
2026-05-05 20:16 50.01323 19.96825 8625 ft 291 kts 81°
2026-05-05 20:16 50.01734 19.99874 8432 ft 285 kts 81°
2026-05-05 20:16 50.02145 20.02901 8091 ft 286 kts 81°
2026-05-05 20:17 50.02556 20.05938 7753 ft 287 kts 81°
2026-05-05 20:17 50.02966 20.08970 7439 ft 287 kts 81°
2026-05-05 20:17 50.03375 20.12003 7140 ft 288 kts 81°
2026-05-05 20:17 50.03790 20.15064 6773 ft 290 kts 81°
2026-05-05 20:18 50.04209 20.18156 6423 ft 293 kts 80°
2026-05-05 20:18 50.04992 20.21104 5935 ft 302 kts 53°
2026-05-05 20:18 50.06618 20.23166 5421 ft 307 kts 21°
2026-05-05 20:18 50.08692 20.23625 4946 ft 301 kts 346°
2026-05-05 20:19 50.10472 20.22303 4694 ft 281 kts 310°
2026-05-05 20:19 50.11561 20.19913 4521 ft 265 kts 295°
2026-05-05 20:19 50.12389 20.17429 4337 ft 251 kts 280°
2026-05-05 20:19 50.12502 20.14840 4259 ft 232 kts 258°
2026-05-05 20:20 50.12273 20.12402 4162 ft 223 kts 256°
2026-05-05 20:20 50.12019 20.10069 4108 ft 212 kts 255°
2026-05-05 20:20 50.11759 20.07858 4025 ft 204 kts 255°
2026-05-05 20:20 50.11489 20.05701 3785 ft 202 kts 254°
2026-05-05 20:21 50.11209 20.03540 3507 ft 205 kts 253°
2026-05-05 20:21 50.10925 20.01391 3346 ft 202 kts 254°
2026-05-05 20:21 50.10646 19.99290 3181 ft 194 kts 253°
2026-05-05 20:21 50.10378 19.97288 3038 ft 181 kts 253°
2026-05-05 20:22 50.10124 19.95422 2831 ft 172 kts 252°
2026-05-05 20:22 50.09877 19.93645 2529 ft 161 kts 252°
2026-05-05 20:22 50.09648 19.91984 2304 ft 152 kts 252°
2026-05-05 20:22 50.09429 19.90416 2068 ft 147 kts 252°
2026-05-05 20:23 50.09213 19.88872 1852 ft 149 kts 253°
2026-05-05 20:23 50.08995 19.87275 1651 ft 152 kts 256°
2026-05-05 20:23 50.08759 19.85617 1577 ft 156 kts 255°
2026-05-05 20:23 50.08534 19.83998 1353 ft 151 kts 257°
2026-05-05 20:24 50.08308 19.82397 1162 ft 154 kts 257°
2026-05-05 20:24 50.08082 19.80696 986 ft 166 kts 258°
2026-05-05 20:24 50.07828 19.78906 1333 ft 168 kts 257°
2026-05-05 20:24 50.07562 19.77040 1938 ft 183 kts 255°
2026-05-05 20:25 50.07267 19.75034 2782 ft 193 kts 252°
2026-05-05 20:25 50.06968 19.72910 3458 ft 218 kts 254°
2026-05-05 20:25 50.06637 19.70473 4001 ft 252 kts 254°
2026-05-05 20:25 50.06266 19.67767 4008 ft 254 kts 254°
2026-05-05 20:26 50.05898 19.65111 3996 ft 248 kts 253°
2026-05-05 20:26 50.05530 19.62491 4022 ft 248 kts 253°
2026-05-05 20:26 50.04990 19.59994 3962 ft 241 kts 235°
2026-05-05 20:26 50.04151 19.57730 3972 ft 245 kts 248°
2026-05-05 20:27 50.04020 19.55082 3925 ft 252 kts 276°
2026-05-05 20:27 50.04780 19.52627 4015 ft 260 kts 304°
2026-05-05 20:27 50.06263 19.50934 3976 ft 273 kts 333°
2026-05-05 20:27 50.08101 19.50249 4019 ft 279 kts 347°
2026-05-05 20:28 50.10060 19.50038 3944 ft 279 kts
2026-05-05 20:28 50.11807 19.51045 4004 ft 268 kts 35°
2026-05-05 20:28 50.13048 19.53109 3863 ft 259 kts 65°
2026-05-05 20:28 50.13671 19.55652 3775 ft 245 kts 77°
2026-05-05 20:29 50.14147 19.58169 3708 ft 238 kts 78°
2026-05-05 20:29 50.14612 19.60596 3589 ft 230 kts 77°
2026-05-05 20:29 50.15053 19.62977 3369 ft 227 kts 78°
2026-05-05 20:29 50.15486 19.65331 3144 ft 223 kts 78°
2026-05-05 20:30 50.15912 19.67619 3040 ft 215 kts 78°
2026-05-05 20:30 50.16344 19.69830 3005 ft 211 kts 78°
2026-05-05 20:30 50.16767 19.72024 3014 ft 210 kts 79°
2026-05-05 20:30 50.17019 19.73460 2979 ft 209 kts 79°
2026-05-05 20:31 50.17511 19.76383 2880 ft 212 kts 81°
2026-05-05 20:31 50.17777 19.77878 2790 ft 211 kts 81°
2026-05-05 20:31 50.18110 19.80095 2664 ft 209 kts 83°
2026-05-05 20:31 50.18509 19.82989 2454 ft 205 kts 82°
2026-05-05 20:32 50.18666 19.84425 2373 ft 189 kts 92°
2026-05-05 20:32 50.18350 19.86209 2159 ft 165 kts 135°
2026-05-05 20:32 50.17457 19.87157 2055 ft 150 kts 162°
2026-05-05 20:32 50.16467 19.87696 2122 ft 151 kts 166°
2026-05-05 20:33 50.15491 19.88220 2152 ft 150 kts 166°
2026-05-05 20:33 50.14486 19.88592 1890 ft 149 kts 177°
2026-05-05 20:33 50.13437 19.88653 1812 ft 151 kts 183°
2026-05-05 20:33 50.12396 19.88560 1778 ft 148 kts 187°
2026-05-05 20:34 50.11382 19.88476 1765 ft 145 kts 182°
2026-05-05 20:34 50.10375 19.88351 1563 ft 145 kts 193°